Regional Weather Roundup
Issued by NWS Austin/San Antonio, TX

Current Version | Previous Version | Text Only | Print | Product List | Glossary On
Versions: 1 2 3 4 5 6 7 8 9 10 11 12 13 14 15 16 17 18 19 20 21 22 23 24 25 26 27 28 29 30 31 32 33 34 35 36 37 38 39 40 41 42 43 44 45 46 47 48 49 50
000
ASUS44 KEWX 231802
RWREWX
SOUTH TEXAS REGIONAL WEATHER ROUNDUP
NATIONAL WEATHER SERVICE AUSTIN/SAN ANTONIO TX
100 PM CDT FRI OCT 23 2020

NOTE: "FAIR" INDICATED FEW OR NO CLOUDS BELOW 12,000 FEET WITH NO
SIGNIFICANT WEATHER AND/OR OBSTRUCTIONS TO VISIBILITY.

* - THESE STATIONS ARE NOT NWS OR FAA STATIONS...AND ARE NOT SUBJECT
    TO NWS AND FAA QUALITY CONTROL.

TXZ171-172-183>190-231900-
TEXAS HILL COUNTRY AND EDWARDS PLATEAU

CITY           SKY/WX    TMP DP  RH WIND       PRES   REMARKS
JUNCTION       CLOUDY    64  56  75 NE12      30.14R
6HR MIN TEMP:  64; 6HR MAX TEMP:  80; 6HR PCP: TRACE;

*LLANO         MIX PCPN  66  64  94 N8G15     30.09S FOG
BURNET         CLOUDY    68  62  81 NE8       30.10F
6HR MIN TEMP:  65; 6HR MAX TEMP:  77; 6HR PCP: TRACE;

*HORSESHOE BAY CLOUDY    72  63  73 NE13G32   30.07R
*LAGO VISTA    LGT RAIN  66  65  96 NE9G16    30.08R
6HR MIN TEMP:  66; 6HR MAX TEMP:  77; 6HR PCP:  0.03;

*KERRVILLE     CLOUDY    76  70  80 CALM      30.06F
6HR MIN TEMP:  72; 6HR MAX TEMP:  78;

*FREDERICKSBRG PTSUNNY   74  68  81 CALM      30.08F
*ROCKSPRINGS   CLOUDY    77  66  69 CALM      30.13F
*BOERNE        CLOUDY    75  70  83 SE3       30.06F
*CASTROVILLE   PTSUNNY   83  68  60 NE7       30.04S
HONDO          CLOUDY    82  68  62 NE8       30.03R
6HR MIN TEMP:  74; 6HR MAX TEMP:  83; 6HR PCP: TRACE;

*UVALDE        CLOUDY    80  69  69 E3        30.04R
6HR MIN TEMP:  74; 6HR MAX TEMP:  80;

DEL RIO        CLOUDY    83  69  62 N7        30.01R
6HR MIN TEMP:  75; 6HR MAX TEMP:  84;

*LAUGHLIN AFB  CLOUDY    80  68  66 NE6       30.02R
6HR MIN TEMP:  72; 6HR MAX TEMP:  82;

*SPOFFORD      CLOUDY   N/A N/A N/A NE3       29.95R
*EAGLE PASS    NOT AVBL
CARRIZO SPRGS  PTSUNNY   88  70  55 S5        29.95F HX  92
*FAITH RANCH   MOSUNNY   88  70  55 S8        29.97S HX  92
$$

TXZ173-191>194-202-209-217>225-228-231900-
CENTRAL AND SOUTH CENTRAL TEXAS

CITY           SKY/WX    TMP DP  RH WIND       PRES   REMARKS
GEORGETOWN     CLOUDY    71  66  84 NE7       30.07F
6HR MIN TEMP:  67; 6HR MAX TEMP:  78; 6HR PCP:  0.23;

*TAYLOR        MOSUNNY   72  68  87 E15       30.05F
6HR MIN TEMP:  68; 6HR MAX TEMP:  80; 6HR PCP:  0.08;

AUSTIN/BERGSTM PTSUNNY   84  69  60 VRB5      30.02F
6HR MIN TEMP:  75; 6HR MAX TEMP:  84; 6HR PCP: TRACE;

AUSTIN/MABRY   CLOUDY    82  68  62 CALM      30.04F
6HR MIN TEMP:  75; 6HR MAX TEMP:  85; 6HR PCP: TRACE;

*PFLUGERVILLE  PTSUNNY   73  64  73 NE14      30.06R HAZE
SAN MARCOS     CLOUDY    84  70  62 CALM      30.02F
6HR MIN TEMP:  74; 6HR MAX TEMP:  85;

NEW BRAUNFELS  PTSUNNY   82  71  69 E7        30.01F
6HR MIN TEMP:  76; 6HR MAX TEMP:  84;

*RANDOLPH AFB  CLOUDY    82  68  61 N6        30.01F
6HR MIN TEMP:  74; 6HR MAX TEMP:  83; 6HR PCP: TRACE;

*SEGUIN        PTSUNNY   85  67  54 N5        30.04F
6HR MIN TEMP:  72; 6HR MAX TEMP:  85; 6HR PCP: TRACE;

SAN ANTONIO    PTSUNNY   82  69  64 CALM      30.03F
6HR MIN TEMP:  75; 6HR MAX TEMP:  83; 6HR PCP: TRACE;

STINSON FIELD  CLOUDY    84  68  58 CALM      29.99S
6HR MIN TEMP:  73; 6HR MAX TEMP:  84;

*KELLY FIELD   PTSUNNY   83  69  60 NE6       30.00F
6HR MIN TEMP:  75; 6HR MAX TEMP:  84;

*PLEASANTON    CLOUDY    86  71  60 E5        30.01R HX  91
6HR MIN TEMP:  75; 6HR MAX TEMP:  86;

*KENEDY        CLOUDY    85  70  61 NW6       29.99S
6HR MIN TEMP:  74; 6HR MAX TEMP:  87;

*LA GRANGE     PTSUNNY   85  71  63 N6        29.99F HX  90
6HR MIN TEMP:  75; 6HR MAX TEMP:  85;

*GIDDINGS      RAIN      80  74  81 NW5       30.02F
6HR MIN TEMP:  74; 6HR MAX TEMP:  86; 6HR PCP:  0.04;

*GONZALES      CLOUDY    84  70  62 NW5       30.01F
$$

TXZ163>164-176>182-195>201-210>213-226-227-235-231900-
SOUTHEAST TEXAS

CITY           SKY/WX    TMP DP  RH WIND       PRES   REMARKS
COLLEGE STN    LGT RAIN  73  67  81 N30G44    30.07R SQUALL
6HR MIN TEMP:  73; 6HR MAX TEMP:  84; 6HR PCP:  0.05;

*BRYAN         TSTM      67  66  98 NW18G28   30.10R
6HR MIN TEMP:  67; 6HR MAX TEMP:  84; 6HR PCP:  0.01;

*CALDWELL      TSTM      68  68 100 N15G29    30.08R FOG
6HR MIN TEMP:  67; 6HR MAX TEMP:  83; 6HR PCP:  0.25;

*CROCKETT      NOT AVBL
*BRENHAM       PTSUNNY   82  73  74 N9        30.03S
HUNTSVILLE     TSTM      69  64  84 N15G31    30.05R
6HR MIN TEMP:  69; 6HR MAX TEMP:  86; 6HR PCP:  0.04;

CONROE         PTSUNNY   86  72  62 NW5       30.00F HX  92
6HR MIN TEMP:  74; 6HR MAX TEMP:  88; 6HR PCP: TRACE;

HOUSTON BUSH   PTSUNNY   88  71  57 N8        29.98S HX  94
6HR MIN TEMP:  73; 6HR MAX TEMP:  88;

HOUSTON HOBBY  MOSUNNY   86  72  62 N6        29.97S HX  92
6HR MIN TEMP:  75; 6HR MAX TEMP:  89;

*HOUSTON SW AP MOSUNNY   84  71  66 CALM      29.98S
6HR MIN TEMP:  69; 6HR MAX TEMP:  86;

PEARLAND       PTSUNNY   87  69  54 NW6       29.98F HX  91
6HR MIN TEMP:  73; 6HR MAX TEMP:  88;

HOUSTON HOOKS  MOSUNNY   87  71  58 NW5       29.99S HX  93
6HR MIN TEMP:  73; 6HR MAX TEMP:  88;

ELLINGTON FLD  NOT AVBL
SUGAR LAND     SUNNY     88  72  58 VRB3      29.98S HX  94
6HR MIN TEMP:  75; 6HR MAX TEMP:  89;

*HOUSTON EXEC  SUNNY     86  73  66 VRB6      30.00F HX  93
*CLEVELAND MUN PTSUNNY   86  70  59 CALM      30.00S HX  91
6HR MIN TEMP:  74; 6HR MAX TEMP:  86; 6HR PCP:  0.02;

*WHARTON       MOSUNNY   86  68  54 CALM      29.98S
6HR MIN TEMP:  71; 6HR MAX TEMP:  86;

*COLUMBUS      NOT AVBL
*EAGLE LAKE    PTSUNNY   85  73  68 CALM      29.99F HX  92
6HR MIN TEMP:  72; 6HR MAX TEMP:  85;

$$

TXZ214>216-236>238-231900-
THE UPPER TEXAS COAST

CITY           SKY/WX    TMP DP  RH WIND       PRES   REMARKS
*ORANGE        PTSUNNY   85  74  68 E7        29.99F HX  92
6HR MIN TEMP:  75; 6HR MAX TEMP:  85;

PORT ARTHUR    PTSUNNY   83  76  79 E9        29.96F HX  91
6HR MIN TEMP:  72; 6HR MAX TEMP:  83; 6HR PCP:  0.85;

GALVESTON      MOSUNNY   86  73  65 SE8       29.97F HX  93
6HR MIN TEMP:  77; 6HR MAX TEMP:  86;

ANGLETON       CLOUDY    89  72  56 N6        29.96F HX  96
6HR MIN TEMP:  69; 6HR MAX TEMP:  89;

*BAY CITY      SUNNY     87  70  57 CALM      29.96F HX  91
PALACIOS       SUNNY     84  76  76 S9        29.95F HX  93
6HR MIN TEMP:  72; 6HR MAX TEMP:  85;

$$

TXZ229>234-239>247-231900-
TEXAS COASTAL BEND AND RIO GRANDE PLAINS

CITY           SKY/WX    TMP DP  RH WIND       PRES   REMARKS
VICTORIA       MOSUNNY   88  70  55 CALM      29.97F HX  93
6HR MIN TEMP:  73; 6HR MAX TEMP:  88;

*BEEVILLE      NOT AVBL
ROCKPORT       SUNNY     85  75  72 E9        29.94F HX  93
6HR MIN TEMP:  76; 6HR MAX TEMP:  87;

*PORT ARANSAS  SUNNY     84  76  75 E9        29.96F HX  92
6HR MIN TEMP:  78; 6HR MAX TEMP:  85;

*PORT LAVACA   SUNNY     85  72  64 CALM      29.97F HX  91
*INGLESIDE     MOSUNNY   88  78  72 E3        29.94F HX 101
CORPUS CHRISTI MOSUNNY   84  73  70 E7        29.94F HX  91
CORPUS NAS     MOSUNNY   88  76  67 NE10      29.94F HX  99
6HR MIN TEMP:  77; 6HR MAX TEMP:  88;

*ROBSTOWN      MOSUNNY   87  72  61 CALM      29.96F HX  93
ALICE          SUNNY     89  72  56 CALM      29.95F HX  96
6HR MIN TEMP:  73; 6HR MAX TEMP:  89;

KINGSVILLE NAS MOSUNNY   88  72  58 SE3       29.94F HX  94
6HR MIN TEMP:  70; 6HR MAX TEMP:  89;

COTULLA        PTSUNNY   87  70  56 MISG      29.96F HX  92
6HR MIN TEMP:  75; 6HR MAX TEMP:  89;

LAREDO         MOSUNNY   90  72  55 SE8       29.93F HX  97
6HR MIN TEMP:  77; 6HR MAX TEMP:  90;

$$

TXZ248>255-231900-
DEEP SOUTH TEXAS

CITY           SKY/WX    TMP DP  RH WIND       PRES   REMARKS
BROWNSVILLE    PTSUNNY   93  73  52 VRB3      29.91F HX 102
6HR MIN TEMP:  74; 6HR MAX TEMP:  93;

PORT ISAB


USA.gov is the U.S. government's official web portal to all federal, state and local government web resources and services.